525  
ASUS44 KLCH 201011  
RWRLCH  
REGIONAL WEATHER ROUNDUP  
NATIONAL WEATHER SERVICE LAKE CHARLES LA  
400 AM CST THU FEB 20 2020  
 
NOTE: "FAIR" INDICATES FEW OR NO CLOUDS BELOW 12,000 FEET WITH NO  
SIGNIFICANT WEATHER AND/OR S TO VISIBILITY
.  
 
ACROSS SOUTHEAST TEXAS  
 
CITY SKY/WX TMP DP RH WIND PRES REMARKS
 
BEAUMONT CLOUDY 52 50 93 N9 30.09F  
BEAUMONT CITY NOT AVBL  
ORANGE CLOUDY 51 50 95 N6 30.12F FOG  
JASPER CLOUDY 46 45 95 N6 30.18R  

 
 
ACROSS CENTRAL LOUISIANA  
 
CITY SKY/WX TMP DP RH WIND PRES REMARKS
 
LEESVILLE CLOUDY 44 44 99 N5 30.12F FOG  
FULLERTON LGT RAIN 45 43 93 NE8 30.10S FOG  
ALEXANDRIA INT RAIN 45 44 97 N10 30.14R  
ESLER FIELD LGT RAIN 47 44 90 VRB6G16 30.14R  
DERIDDER DRIZZLE 45 44 95 CALM 30.14F  
OAKDALE NOT AVBL  
OPELOUSAS DRIZZLE 51 50 97 N9G18 30.09S  

 
 
ACROSS SOUTHWEST AND SOUTH CENTRAL LOUISIANA  
 
CITY SKY/WX TMP DP RH WIND PRES REMARKS
 
DEQUINCY DRIZZLE 47 46 97 NW14 30.12S  
SULPHUR CLOUDY 51 51 99 N10 30.10S  
LAKE CHARLES CLOUDY 53 50 89 N12 30.09R  
CHENNAULT INT CLOUDY 51 50 98 N14 30.09S  
CAMERON PHI NOT AVBL  
GRAND CHENIER NOT AVBL  
JENNINGS LGT RAIN 52 51 97 N12 30.10R  
LAFAYETTE LGT RAIN 57 55 93 N6 30.07F FOG  
NEW IBERIA RAIN 59 59 100 N6 30.07S FOG  
ABBEVILLE RAIN 58 56 92 NE5 30.06F  
PATTERSON LGT RAIN 63 63 100 E9 30.03F FOG  
SALT POINT N/A 64 64 100 E7 30.01F  

 
 
SELECTED SITES ACROSS THE REGION  
 
CITY SKY/WX TMP DP RH WIND PRES REMARKS
 
HOUSTON BUSH DRZL/FOG 49 46 90 N15 30.14R VSB 1  
HOUSTON HOBBY CLOUDY 51 48 89 N13 30.12S FOG  
GALVESTON LGT RAIN 56 54 93 N15 30.10S FOG  
COLLEGE STAT RAIN 47 44 90 N10 30.19R FOG  
CONROE CLOUDY 46 44 93 N9 30.16S  
HUNTSVILLE LGT RAIN 45 43 93 CALM 30.17R  
LUFKIN HVY RAIN 44 42 93 N6 30.18R FOG  
SHREVEPORT LGT RAIN 44 42 93 N10 30.22R  
MONROE LGT RAIN 46 43 89 NE12 30.20F  
NATCHEZ MS HVY RAIN 49 48 97 N7 30.11F  
BATON ROUGE LGT RAIN 55 54 96 E5 30.07F FOG  
N.O. INTL ARPT CLOUDY 62 58 86 E9 30.07F  
SLIDELL CLOUDY 58 55 90 E5 30.07F  

 
 
MARINE REPORTS  
 
STATION/POSITION TIME SKY/WX TEMP WIND PRES VSBY
 
AIR SEA DIR/SP/G  
(UTC) (F) (DEG/KT/KT) (MB) (MI)  
BUOY 30 S HIGH I 0950 1019.5F  
WVE H/P(F/S)= 3/ 5  
 
SEA RIM ST PARK 1000 51 350/ 9/ 12 1018.4F  
PORT ARTHUR 0930 51 61 1018.5F  
SABINE PASS N 0924 54 64 1020.5  
TEXAS POINT 0930 53 61 1017.2F  
CALCASIEU PASS 0930 54 62 1016.0F  
LK CHARLES BEACH 0930 50 60 1018.7F  
MARSH ISLAND NOT AVBL  
FRESH WATER LOCK 0930 64 65 1016.7F  
AMERADA PASS 0930 65 54 1017.5F  

 
 
 
CLICK HERE TO GO TO PREVIOUS BULLETINS.

The Nexlab LA Page
The Nexlab TX Page Main Text Page